LogoCoinalyze
    Ad-Free Version 主页 市场 资金费率
    期货数据
    • 汇总数据 (币种)
    • 单币图表
    • 全局图表
    提醒
    TA
    Bitcoin Ethereum BNB Ripple Tron ZCash Dogecoin Monero UNUS SED LEO Chainlink Cardano Stellar Lumens Bitcoin Cash Litecoin Hedera Cronos Polkadot Ethereum Classic Algorand Quant Cosmos VeChain Dash Bitcoin SV BitTorrent Terra Decred Tezos Iota The Graph THETA Decentraland Chiliz NEO MultiversX Golem Basic Attention Token Horizen Qtum 0x DigiByte Beam RIF Token FTX Token Holo FUNToken Zilliqa Ontology Nano aelf Enjin Coin Ravencoin Siacoin Mask Network Verge Status WINk Waves IoTeX iExec RLC Power Ledger Steem Kyber Network Crystal Lisk Ark Ardor WOO Network IOST WAX Icon Storj Loopring Wanchain Bitcoin Diamond AdEx Bitcoin Gold Augur OmiseGO NEM MonaCoin BitShares Ren Komodo V Systems Nuls Mithril SOLVE EOS Aion Maker Nebulas HedgeTrade Bread Fetch.ai TomoChain Polygon Fantom Waltonchain GXChain Bytom Metaverse ETP MaidSafeCoin QASH
    排序方式:
    更多
    • API
    • K线形态
    • 捐赠
    • 联系我们
    • 网站地图
    • 隐私政策
    • 免责声明
    • Theme:
    简体中文
    • English
    • Français
    • Русский
    • Deutsch
    • Türkçe
    • Nederlands
    • Português (BR)
    • Español
    • 한국어
    • 日本語
     
    登录 / 注册
    Markets/ Pepe/ PEPE 至 USD/ PEPEUSD Bitstamp
    交易
    WL
    聊天
    统计
    新闻
    ⦷
    AAA
    0.00000341 10000000.00000000 18:18:51
    0.00000339 105263.00000000 18:17:20
    0.00000340 582699.00000000 18:17:14
    0.00000340 7504268.10000000 18:15:22
    0.00000340 15094900.00000000 18:15:13
    0.00000340 6521900.00000000 18:15:13
    0.00000340 75890593.40000001 18:15:13
    0.00000340 10808400.00000000 18:15:12
    0.00000339 300000000.00000000 18:13:04
    0.00000340 1151848.00000000 18:12:51
    0.00000340 80625000.00000000 18:10:12
    0.00000340 268967360.00000000 18:10:10
    0.00000340 15008400.00000000 18:10:10
    0.00000340 16024240.00000000 18:09:46
    0.00000340 293311339.00000000 18:07:01
    0.00000339 41582699.00000000 18:00:48
    0.00000340 25000000.00000000 18:00:34
    0.00000339 589970.00000000 18:00:20
    0.00000340 582699.00000000 17:57:51
    0.00000339 2000000.00000000 17:55:08
    0.00000339 7504268.10000000 17:54:10
    0.00000339 1010381.00000000 17:53:25
    0.00000340 686210351.89999998 17:52:20
    0.00000340 888857523.00000000 17:52:20
    0.00000340 736802857.00000000 17:52:20
    0.00000339 7504268.10000000 17:52:20
    0.00000339 80625000.00000000 17:52:20
    0.00000339 33495731.90000000 17:51:41
    0.00000339 7504268.10000000 17:51:41
    0.00000340 40816.00000000 17:50:22
    0.00000339 804238.00000000 17:48:39
    0.00000339 141592.00000000 17:47:45
    0.00000338 1183431.00000000 17:47:40
    0.00000339 273480.00000000 17:45:59
    0.00000339 7504200.00000000 17:45:32
    0.00000339 68.10000000 17:45:26
    0.00000339 7504200.00000000 17:45:26
    0.00000338 115384.00000000 17:42:41
    0.00000338 10000000.00000000 17:41:09
    0.00000338 10000000.00000000 17:41:06
    0.00000338 10000000.00000000 17:41:03
    0.00000338 10000000.00000000 17:41:00
    0.00000338 7504268.00000000 17:40:57
    0.00000338 625000.00000000 17:40:57
    0.00000338 10000000.00000000 17:40:54
    0.00000338 10000000.00000000 17:40:51
    0.00000338 10000000.00000000 17:40:48
    0.00000338 10000000.00000000 17:40:45
    0.00000338 10000000.00000000 17:40:42
    0.00000338 10000000.00000000 17:40:39
    0.00000338 10000000.00000000 17:40:36
    0.00000338 10000000.00000000 17:40:33
    0.00000338 10000000.00000000 17:40:26
    0.00000339 3741463.80000000 17:40:23
    0.00000338 6258536.20000000 17:40:23
    0.00000338 10000000.00000000 17:40:20
    0.00000338 10000000.00000000 17:40:17
    0.00000338 10000000.00000000 17:40:14
    0.00000338 10000000.00000000 17:40:11
    0.00000338 10000000.00000000 17:40:08
    0.00000338 10000000.00000000 17:40:05
    0.00000338 10000000.00000000 17:40:02
    0.00000338 4366463.80000000 17:39:59
    0.00000338 5633536.20000000 17:39:59
    0.00000338 1870731.90000000 17:39:56
    0.00000338 8129268.10000000 17:39:56
    0.00000338 10000000.00000000 17:39:53
    0.00000338 10000000.00000000 17:39:50
    0.00000338 10000000.00000000 17:39:47
    0.00000338 10000000.00000000 17:39:44
    0.00000338 10000000.00000000 17:39:40
    0.00000338 10000000.00000000 17:39:37
    0.00000338 10000000.00000000 17:39:34
    0.00000338 2495731.90000000 17:39:31
    0.00000338 7504268.10000000 17:39:31
    0.00000338 10000000.00000000 17:39:25
    0.00000338 10000000.00000000 17:39:22
    0.00000338 10000000.00000000 17:39:19
    0.00000338 10000000.00000000 17:39:16
    0.00000338 10000000.00000000 17:39:13
    0.00000338 10000000.00000000 17:39:10
    0.00000338 10000000.00000000 17:39:07
    0.00000338 10000000.00000000 17:39:04
    0.00000338 53.80000000 17:39:03
    0.00000338 90985400.00000000 17:39:03
    0.00000338 10000000.00000000 17:38:18
    0.00000338 10000000.00000000 17:38:15
    0.00000338 10000000.00000000 17:38:12
    0.00000339 10000000.00000000 17:34:36
    0.00000339 10000000.00000000 17:34:34
    0.00000339 10000000.00000000 17:34:32
    0.00000339 10000000.00000000 17:34:30
    0.00000339 10000000.00000000 17:34:28
    0.00000339 10000000.00000000 17:34:26
    0.00000338 645000000.00000000 17:33:59
    0.00000338 645000000.00000000 17:33:59
    0.00000338 10000000.00000000 17:33:58
    0.00000338 10000000.00000000 17:33:56
    0.00000338 10000000.00000000 17:33:54
    0.00000338 10000000.00000000 17:33:52
    注销
    AAA
    帮助
    🙂 🤣 😎 🤗 😛 😉 😜 🤑 🤔 😑 😴 😕 🙃 😲 😇 🙁 😢 😬 😟 😠 🕺 🏃 💪 ✌ 👌 👍 👎 👏 👋 🤝 🍺 🍻 🐋 🐟 🦈 🗽 🚄 ✈ 🛑 🚀 🏦 🌚 ⭐ 🌞 ⚡ 🏆 💰 💲 🔨 ❓ ❗ 💯 🔶 🏁
    ☺
    登录 或 注册 并聊天
    24 小时
    变动
    -1.73%
    成交量
    294,425,575,853
    最高
    0.00000351
    最低
    0.00000336
    7 天
    变动
    -10.73%
    成交量
    1,618,276,056,468
    最高
    0.00000401
    最低
    0.00000336
    30 天
    变动
    +17.59%
    成交量
    5,161,438,967,309
    最高
    0.00000455
    最低
    0.00000253
    Pepe price rallies 25% as whale demand and futures interest surge
    Key takeaways Pepe has gained 25% this week, including a combined 22% advance over the previous two days. Seven whale transactions worth more than $1 million each occurred Thursday, the highest...
    coinjournal.net
    Aug 21, 2026 08:41
    PEPE Supply on Exchanges Just Took a Massive Hit – What’s Next?
    A drop in PEPE exchange balances has added to bullish expectations despite muted trader interest.
    cryptopotato.com
    Aug 6, 2026 20:02
    PEPE Exchange Outflows Hit Nearly 2-Year High as Whales Accumulate
    Pepe (PEPE) recorded its largest single-day exchange outflow since November 2024, with 4.54 trillion tokens leaving trading platforms, signaling that holders are moving supply away from immediate...
    beincrypto.com
    Aug 6, 2026 04:57
    Meme Coin Based on White House Shooter Conspiracy Rallies 320%
    $HENRY surged 300% after a 2023 Pepe tweet appeared to name the White House shooter, fueling a viral time-travel meme. The post Meme Coin Based on White House Shooter Conspiracy Rallies 320%...
    beincrypto.com
    Apr 27, 2026 16:11
    PEPE surges 4% as market sentiment improves, eyes Key resistance breakout
    Key takeaways Pepe extends gains on Wednesday, stretching its rally from the 50-day EMA. Derivatives data show heightened retail activity as risk-on sentiment returns to the market. Pepe (PEPE) is...
    coinjournal.net
    Apr 22, 2026 11:44
    Why The PEPE Price Could Stage A 55X Rally To Reach New $0.0001 ATH
    The PEPE price has now started to edge back into bullish conversations after the recent inflows into the crypto market. The last time PEPE’s weekly chart printed the kind of structure now...
    newsbtc.com
    Apr 21, 2026 15:30
    Pepe (PEPE) surges 9%, drawing interest from whales
    Key takeaways PEPE is up 9% in the last 24 hours, making it one of the best performers among the top 50 cryptocurrencies by market cap. The rally comes amid renewed interest from whales and retail...
    coinjournal.net
    Apr 16, 2026 07:40
    Murad Says SPX6900 (SPX) Is Primed for a Rally — Is He Right This Time?
    Crypto influencer Murad Mahmudov claims SPX6900 (SPX) is stabilizing at the same market cap level where Dogecoin (DOGE) and Pepe (PEPE) consolidated before their explosive rallies. The...
    beincrypto.com
    Apr 5, 2026 21:36
    The Shiba Inu Of This Cycle: Analyst Shares Why It Is Better To Buy PEPE Now
    In the bull market cycle of 2021-2022, the Shiba Inu meme coin made waves in a way that changed the face of meme coins forever. This came after Dogecoin’s initial 36,000% rally, and Shiba Inu...
    newsbtc.com
    Apr 4, 2026 07:30
    PEPE Explodes by 18% Amid Altcoin Rally, BTC Tapped $74K: Market Watch
    The frog-themed meme coin is today's biggest gainer, followed by TAO, DOT, and BONK.
    cryptopotato.com
    Mar 16, 2026 10:56
    Should PEPE traders brace for volatility as short squeeze potential builds?
    The memecoin market has seen its collective market capitalization drop by 48% over the past year, and 6.9% over the past month, according to CoinMarketCap. According to Glassnode, the memecoin...
    ambcrypto.com
    Mar 7, 2026 18:00
    只需在聊天中输入命令即可。将 nick1 替换为实际的昵称。
    • /ignore nick1 忽略聊天用户
    • /unignore nick1 取消忽略聊天用户
    • /ignorelist 显示已忽略的聊天用户